Tracking 18852 objects as of 24-Nov-2017
HD Live streaming from Space Station
objects crossing your sky now

IRIDIUM 43

Track IRIDIUM 43 now!
10-day predictions
IRIDIUM 43 is classified as:


NORAD ID: 25039
Int'l Code: 1997-069A
Perigee: 247.0 km
Apogee: 491.0 km
Inclination: 86.4 °
Period: 91.8 minutes
Semi major axis: 6739 km
RCS: 3.398 m2 (large)
Launch date: November 9, 1997
Source: United States (US)
Launch site: AIR FORCE WESTERN TEST RANGE (AFWTR)
aabbcc
Your satellite tracking list
Your tracking list is empty




NASA's NSSDC Master Catalog

Two Line Element Set (TLE):
1 25039U 97069A   17328.17825076  .00184448  82891-5  60855-3 0  9996
2 25039  86.3876 299.8146 0180956 140.3462 221.1207 15.68967808 51365
Source of the keplerian elements: AFSPC